Location: ?????
(31.8092°N, 35.2590°E)
Time: 20:20:34
(UTC+00:00)

Cosmos 1455 Rocket - Pass Details

Date: 25 October 2021
Orbit: 604 x 630 km, 82.5° (Epoch: 04 December)

Event Time Altitude Azimuth Distance (km) Brightness Sun altitude
Rises 15:41:23 0° 207° (SSW) 2,883 7.0 -10.3°
Reaches altitude 10° 15:43:47 10° 217° (SW) 1,985 6.3 -10.8°
Maximum altitude 15:47:43 32° 280° (W) 1,079 5.1 -11.6°
Drops below altitude 10° 15:51:43 10° 344° (NNW) 2,008 5.8 -12.5°
Sets 15:54:10 0° 355° (N) 2,921 6.5 -13.0°
